Year,Month,Day,Hour,Minute,Value (Times are PST for temperature in C)
2010,10,21,00,00,8.20
2010,10,21,00,01,8.30
2010,10,21,00,02,8.40
2010,10,21,00,03,8.50
2010,10,21,00,04,8.70
2010,10,21,00,05,8.80
2010,10,21,00,06,8.80
2010,10,21,00,07,8.80
2010,10,21,00,08,8.80
2010,10,21,00,09,8.80
2010,10,21,00,10,8.80
2010,10,21,00,11,8.70
2010,10,21,00,12,8.70
2010,10,21,00,13,8.70
2010,10,21,00,14,8.70
2010,10,21,00,15,8.70
2010,10,21,00,16,8.60
2010,10,21,00,17,8.60
2010,10,21,00,18,8.60
2010,10,21,00,19,8.60
2010,10,21,00,20,8.60
2010,10,21,00,21,8.60
2010,10,21,00,22,8.60
2010,10,21,00,23,8.60
2010,10,21,00,24,8.50
2010,10,21,00,25,8.50
2010,10,21,00,26,8.40
2010,10,21,00,27,8.40
2010,10,21,00,28,8.30
2010,10,21,00,29,8.30
2010,10,21,00,30,8.20
2010,10,21,00,31,8.20
2010,10,21,00,32,8.20
2010,10,21,00,33,8.10
2010,10,21,00,34,8.10
2010,10,21,00,35,8.10
2010,10,21,00,36,8.10
2010,10,21,00,37,8.10
2010,10,21,00,38,8.10
2010,10,21,00,39,8.10
2010,10,21,00,40,8.20
2010,10,21,00,41,8.20
2010,10,21,00,42,8.10
2010,10,21,00,43,8.10
2010,10,21,00,44,8.10
2010,10,21,00,45,8.10
2010,10,21,00,46,8.10
2010,10,21,00,47,8.10
2010,10,21,00,48,8.10
2010,10,21,00,49,8.10
2010,10,21,00,50,8.10
2010,10,21,00,51,8.10
2010,10,21,00,52,8.10
2010,10,21,00,53,8.10
2010,10,21,00,54,8.10
2010,10,21,00,55,8.10
2010,10,21,00,56,8.10
2010,10,21,00,57,8.10
2010,10,21,00,58,8.20
2010,10,21,00,59,8.20
2010,10,21,01,00,8.30
2010,10,21,01,01,8.50
2010,10,21,01,02,8.60
2010,10,21,01,03,8.70
2010,10,21,01,04,8.80
2010,10,21,01,05,8.80
2010,10,21,01,06,8.90
2010,10,21,01,07,8.90
2010,10,21,01,08,8.80
2010,10,21,01,09,8.80
2010,10,21,01,10,8.70
2010,10,21,01,11,8.60
2010,10,21,01,12,8.50
2010,10,21,01,13,8.40
2010,10,21,01,14,8.30
2010,10,21,01,15,8.30
2010,10,21,01,16,8.30
2010,10,21,01,17,8.40
2010,10,21,01,18,8.40
2010,10,21,01,19,8.40
2010,10,21,01,20,8.40
2010,10,21,01,21,8.40
2010,10,21,01,22,8.40
2010,10,21,01,23,8.30
2010,10,21,01,24,8.30
2010,10,21,01,25,8.30
2010,10,21,01,26,8.30
2010,10,21,01,27,8.30
2010,10,21,01,28,8.30
2010,10,21,01,29,8.30
2010,10,21,01,30,8.30
2010,10,21,01,31,8.30
2010,10,21,01,32,8.30
2010,10,21,01,33,8.20
2010,10,21,01,34,8.20
2010,10,21,01,35,8.20
2010,10,21,01,36,8.20
2010,10,21,01,37,8.10
2010,10,21,01,38,8.10
2010,10,21,01,39,8.10
2010,10,21,01,40,8.10
2010,10,21,01,41,8.10
2010,10,21,01,42,8.10
2010,10,21,01,43,8.10
2010,10,21,01,44,8.10
2010,10,21,01,45,8.10
2010,10,21,01,46,8.10
2010,10,21,01,47,8.10
2010,10,21,01,48,8.20
2010,10,21,01,49,8.20
2010,10,21,01,50,8.30
2010,10,21,01,51,8.40
2010,10,21,01,52,8.50
2010,10,21,01,53,8.60
2010,10,21,01,54,8.70
2010,10,21,01,55,8.70
2010,10,21,01,56,8.80
2010,10,21,01,57,8.80
2010,10,21,01,58,8.80
2010,10,21,01,59,8.90
2010,10,21,02,00,8.90
2010,10,21,02,01,8.90
2010,10,21,02,02,8.80
2010,10,21,02,03,8.80
2010,10,21,02,04,8.80
2010,10,21,02,05,8.80
2010,10,21,02,06,8.90
2010,10,21,02,07,8.90
2010,10,21,02,08,9.00
2010,10,21,02,09,9.10
2010,10,21,02,10,9.10
2010,10,21,02,11,9.20
2010,10,21,02,12,9.20
2010,10,21,02,13,9.30
2010,10,21,02,14,9.30
2010,10,21,02,15,9.30
2010,10,21,02,16,9.30
2010,10,21,02,17,9.40
2010,10,21,02,18,9.40
2010,10,21,02,19,9.40
2010,10,21,02,20,9.40
2010,10,21,02,21,9.40
2010,10,21,02,22,9.40
2010,10,21,02,23,9.50
2010,10,21,02,24,9.50
2010,10,21,02,25,9.50
2010,10,21,02,26,9.50
2010,10,21,02,27,9.40
2010,10,21,02,28,9.40
2010,10,21,02,29,9.40
2010,10,21,02,30,9.30
2010,10,21,02,31,9.30
2010,10,21,02,32,9.30
2010,10,21,02,33,9.30
2010,10,21,02,34,9.30
2010,10,21,02,35,9.30
2010,10,21,02,36,9.20
2010,10,21,02,37,9.20
2010,10,21,02,38,9.20
2010,10,21,02,39,9.20
2010,10,21,02,40,9.20
2010,10,21,02,41,9.10
2010,10,21,02,42,9.10
2010,10,21,02,43,9.10
2010,10,21,02,44,9.10
2010,10,21,02,45,9.10
2010,10,21,02,46,9.10
2010,10,21,02,47,9.10
2010,10,21,02,48,9.10
2010,10,21,02,49,9.10
2010,10,21,02,50,9.10
2010,10,21,02,51,9.10
2010,10,21,02,52,9.10
2010,10,21,02,53,9.00
2010,10,21,02,54,9.00
2010,10,21,02,55,9.00
2010,10,21,02,56,9.00
2010,10,21,02,57,8.90
2010,10,21,02,58,8.90
2010,10,21,02,59,8.80
2010,10,21,03,00,8.80
2010,10,21,03,01,8.70
2010,10,21,03,02,8.70
2010,10,21,03,03,8.70
2010,10,21,03,04,8.70
2010,10,21,03,05,8.70
2010,10,21,03,06,8.70
2010,10,21,03,07,8.70
2010,10,21,03,08,8.70
2010,10,21,03,09,8.70
2010,10,21,03,10,8.70
2010,10,21,03,11,8.60
2010,10,21,03,12,8.60
2010,10,21,03,13,8.60
2010,10,21,03,14,8.60
2010,10,21,03,15,8.60
2010,10,21,03,16,8.60
2010,10,21,03,17,8.60
2010,10,21,03,18,8.60
2010,10,21,03,19,8.60
2010,10,21,03,20,8.60
2010,10,21,03,21,8.60
2010,10,21,03,22,8.60
2010,10,21,03,23,8.50
2010,10,21,03,24,8.50
2010,10,21,03,25,8.50
2010,10,21,03,26,8.50
2010,10,21,03,27,8.40
2010,10,21,03,28,8.40
2010,10,21,03,29,8.40
2010,10,21,03,30,8.40
2010,10,21,03,31,8.40
2010,10,21,03,32,8.40
2010,10,21,03,33,8.40
2010,10,21,03,34,8.40
2010,10,21,03,35,8.40
2010,10,21,03,36,8.40
2010,10,21,03,37,8.40
2010,10,21,03,38,8.50
2010,10,21,03,39,8.50
2010,10,21,03,40,8.50
2010,10,21,03,41,8.60
2010,10,21,03,42,8.60
2010,10,21,03,43,8.60
2010,10,21,03,44,8.70
2010,10,21,03,45,8.70
2010,10,21,03,46,8.70
2010,10,21,03,47,8.70
2010,10,21,03,48,8.70
2010,10,21,03,49,8.70
2010,10,21,03,50,8.80
2010,10,21,03,51,8.80
2010,10,21,03,52,8.80
2010,10,21,03,53,8.80
2010,10,21,03,54,8.80
2010,10,21,03,55,8.80
2010,10,21,03,56,8.80
2010,10,21,03,57,8.80
2010,10,21,03,58,8.80
2010,10,21,03,59,8.80
2010,10,21,04,00,8.80
2010,10,21,04,01,8.80
2010,10,21,04,02,8.80
2010,10,21,04,03,8.80
2010,10,21,04,04,8.80
2010,10,21,04,05,8.80
2010,10,21,04,06,8.70
2010,10,21,04,07,8.70
2010,10,21,04,08,8.70
2010,10,21,04,09,8.70
2010,10,21,04,10,8.70
2010,10,21,04,11,8.70
2010,10,21,04,12,8.60
2010,10,21,04,13,8.60
2010,10,21,04,14,8.70
2010,10,21,04,15,8.70
2010,10,21,04,16,8.70
2010,10,21,04,17,8.70
2010,10,21,04,18,8.80
2010,10,21,04,19,8.80
2010,10,21,04,20,8.80
2010,10,21,04,21,8.80
2010,10,21,04,22,8.80
2010,10,21,04,23,8.80
2010,10,21,04,24,8.80
2010,10,21,04,25,8.70
2010,10,21,04,26,8.70
2010,10,21,04,27,8.70
2010,10,21,04,28,8.60
2010,10,21,04,29,8.60
2010,10,21,04,30,8.60
2010,10,21,04,31,8.50
2010,10,21,04,32,8.40
2010,10,21,04,33,8.40
2010,10,21,04,34,8.30
2010,10,21,04,35,8.30
2010,10,21,04,36,8.30
2010,10,21,04,37,8.30
2010,10,21,04,38,8.30
2010,10,21,04,39,8.30
2010,10,21,04,40,8.30
2010,10,21,04,41,8.30
2010,10,21,04,42,8.30
2010,10,21,04,43,8.30
2010,10,21,04,44,8.20
2010,10,21,04,45,8.20
2010,10,21,04,46,8.20
2010,10,21,04,47,8.20
2010,10,21,04,48,8.20
2010,10,21,04,49,8.10
2010,10,21,04,50,8.00
2010,10,21,04,51,8.00
2010,10,21,04,52,7.90
2010,10,21,04,53,7.90
2010,10,21,04,54,7.80
2010,10,21,04,55,7.80
2010,10,21,04,56,7.80
2010,10,21,04,57,7.80
2010,10,21,04,58,7.80
2010,10,21,04,59,7.80
2010,10,21,05,00,7.80
2010,10,21,05,01,7.80
2010,10,21,05,02,7.80
2010,10,21,05,03,7.90
2010,10,21,05,04,7.90
2010,10,21,05,05,7.90
2010,10,21,05,06,7.90
2010,10,21,05,07,7.90
2010,10,21,05,08,7.90
2010,10,21,05,09,8.00
2010,10,21,05,10,8.10
2010,10,21,05,11,8.10
2010,10,21,05,12,8.20
2010,10,21,05,13,8.20
2010,10,21,05,14,8.20
2010,10,21,05,15,8.10
2010,10,21,05,16,8.10
2010,10,21,05,17,8.10
2010,10,21,05,18,8.10
2010,10,21,05,19,8.10
